This is the latest recevied weather packets stored in our database for station/object AB4KN. If no packets are shown the sender has not sent any weather packets the latest 1 day(s).
| Time | Temp. | Humidity | Pressure | Rain* | Wind** | Luminosity | Snow |
|---|---|---|---|---|---|---|---|
| 1777995747 | 22.22° C | 51% | 1022.1 hPa | 0 mm | 0.89 m/s, 245° | 562 W/m² | - |
| 1777995444 | 22.22° C | 51% | 1021.9 hPa | 0 mm | 1.34 m/s, 238° | 210 W/m² | - |
| 1777995141 | 22.22° C | 49% | 1022.2 hPa | 0 mm | 0.89 m/s, 211° | 705 W/m² | - |
| 1777994838 | 22.22° C | 54% | 1022.1 hPa | 0 mm | 0 m/s | 94 W/m² | - |
| 1777994534 | 21.67° C | 56% | 1022.3 hPa | 0 mm | 1.34 m/s, 248° | 103 W/m² | - |
| 1777994229 | 21.67° C | 59% | 1021.8 hPa | 0 mm | 0 m/s | 61 W/m² | - |
| 1777993927 | 21.67° C | 60% | 1021.8 hPa | 0 mm | 1.34 m/s, 175° | 44 W/m² | - |
| 1777993623 | 21.11° C | 60% | 1022.1 hPa | 0 mm | 1.34 m/s, 259° | 36 W/m² | - |
| 1777993320 | 21.11° C | 60% | 1021.9 hPa | 0 mm | 0 m/s | 34 W/m² | - |
| 1777993020 | 20.56° C | 61% | 1021.9 hPa | 0 mm | 0 m/s | 32 W/m² | - |
| 1777992719 | 20.56° C | 60% | 1022 hPa | 0 mm | 0 m/s | 33 W/m² | - |
| 1777992416 | 20.56° C | 59% | 1022.1 hPa | 0 mm | 0 m/s | 35 W/m² | - |
| 1777992114 | 20.56° C | 61% | 1022 hPa | 0 mm | 0 m/s | 37 W/m² | - |
| 1777991811 | 20.56° C | 61% | 1021.9 hPa | 0 mm | 0 m/s | 30 W/m² | - |
| 1777991508 | 20.56° C | 61% | 1021.9 hPa | 0 mm | 0.89 m/s, 152° | 28 W/m² | - |
| 1777991205 | 20.56° C | 62% | 1021.7 hPa | 0 mm | 0 m/s | 28 W/m² | - |
| 1777990902 | 20° C | 62% | 1021.4 hPa | 0 mm | 0 m/s | 28 W/m² | - |
| 1777990600 | 20° C | 63% | 1021.6 hPa | 0 mm | 0 m/s | 26 W/m² | - |
| 1777990297 | 19.44° C | 62% | 1021.5 hPa | 0 mm | 0 m/s | 25 W/m² | - |
| 1777989993 | 18.89° C | 65% | 1021.4 hPa | 0 mm | 0 m/s | 24 W/m² | - |
| 1777989690 | 18.89° C | 63% | 1021.3 hPa | 0 mm | 0 m/s | 22 W/m² | - |
| 1777989386 | 17.78° C | 67% | 1021.1 hPa | 0 mm | 0 m/s | 23 W/m² | - |
| 1777989083 | 17.78° C | 71% | 1021.2 hPa | 0 mm | 0 m/s | 22 W/m² | - |
| 1777988779 | 17.22° C | 71% | 1021.2 hPa | 0 mm | 0 m/s | 21 W/m² | - |
| 1777988477 | 17.22° C | 70% | 1021.3 hPa | 0 mm | 0 m/s | 21 W/m² | - |
* Rain latest hour (hover to see other rain measurements)
** Current wind speed in m/s (hover to see current wind gust speed)